Weather History for KAHQ - March, 2013

Change the Weather History Date:

Friday, March 15, 2013

  Actual Average Record
Temperature  
Mean Temperature 44 °F -  
Max Temperature 56 °F 49 °F 80 °F (2015)
Min Temperature 32 °F 26 °F 10 °F (1988)
Degree Days  
Heating Degree Days 21    
Moisture  
Dew Point 38 °F    
Average Humidity 83    
Maximum Humidity 96    
Minimum Humidity 61    
Precipitation  
Precipitation 0.00 in - - ()
Sea Level Pressure  
Sea Level Pressure 29.83 in    
Wind  
Wind Speed 6 mph (North)    
Max Wind Speed 12 mph    
Max Gust Speed -    
Visibility 8 miles    
Events      
Averages and records for this station are not official NWS values.
T = Trace of Precipitation, MM = Missing Value Source: NWS Daily Summary

Daily Weather History Graph

Daily Weather History Graph

Search for Another Location

Airport or City:

Trip Planner

Search our weather history database for the weather conditions in past years. The results will help you decide how hot, cold, wet, or windy it might be!

Date:

Astronomy

Mar. 15, 2013 Rise Set
Actual Time 7:37 AM CDT 7:33 PM CDT
Civil Twilight 7:10 AM CDT 8:00 PM CDT
Nautical Twilight 6:38 AM CDT 8:32 PM CDT
Astronomical Twilight 6:05 AM CDT 9:05 PM CDT
Moon 9:26 AM CDT (3/15) 11:51 PM CDT (3/15)
Length of Visible Light 12h 50m
Length of Day
11h 55m
Waxing Crescent, 15% of the Moon is Illuminated
Mar 15
Waxing Crescent
Mar 19
First Quarter
Mar 27
Full
Apr 2
Last Quarter
Apr 10
New

Hourly Weather History & Observations

Time (CDT) Temp. Windchill Dew Point Humidity Pressure Visibility Wind Dir Wind Speed Gust Speed Precip Events Conditions
12:15 AM 39.7 °F 36.5 °F 36.7 °F 89% 30.05 in 10.0 mi SSW 4.6 mph - N/A   Clear
12:35 AM 37.8 °F 35.3 °F 34.5 °F 88% 30.05 in 10.0 mi SSW 3.5 mph - N/A   Clear
12:55 AM 37.8 °F 35.3 °F 34.7 °F 89% 30.04 in 10.0 mi South 3.5 mph - N/A   Clear
1:15 AM 36.7 °F 34.1 °F 34.0 °F 90% 30.03 in 10.0 mi SSW 3.5 mph - N/A   Clear
1:35 AM 34.7 °F - 32.7 °F 92% 30.02 in 7.0 mi Calm Calm - N/A   Clear
1:55 AM 35.8 °F 31.9 °F 34.0 °F 93% 30.01 in 7.0 mi SSW 4.6 mph - N/A   Clear
2:15 AM 35.4 °F 31.5 °F 33.8 °F 94% 30.00 in 5.0 mi SSW 4.6 mph - N/A   Clear
2:35 AM 35.8 °F 31.9 °F 34.2 °F 94% 29.99 in 7.0 mi South 4.6 mph - N/A   Clear
2:55 AM 35.2 °F 30.3 °F 33.3 °F 92% 29.97 in 7.0 mi SSE 5.8 mph - N/A   Clear
3:15 AM 33.8 °F 29.6 °F 32.0 °F 93% 29.97 in 5.0 mi SSW 4.6 mph - N/A   Clear
3:35 AM 35.6 °F - 34.0 °F 94% 29.96 in 7.0 mi Calm Calm - N/A   Clear
3:55 AM 33.8 °F 29.6 °F 32.0 °F 93% 29.94 in 5.0 mi ESE 4.6 mph - N/A   Clear
4:15 AM 33.1 °F 26.9 °F 32.0 °F 96% 29.92 in 5.0 mi SE 6.9 mph - N/A   Clear
4:35 AM 32.7 °F 28.3 °F 31.6 °F 96% 29.92 in 7.0 mi South 4.6 mph - N/A   Scattered Clouds
4:55 AM 33.4 °F 28.1 °F 32.0 °F 94% 29.90 in 7.0 mi SSE 5.8 mph - N/A   Scattered Clouds
5:15 AM 32.7 °F 28.3 °F 31.6 °F 96% 29.90 in 5.0 mi SSE 4.6 mph - N/A   Clear
5:35 AM 32.9 °F 27.5 °F 31.6 °F 95% 29.88 in 7.0 mi SSE 5.8 mph - N/A   Clear
5:55 AM 32.5 °F 26.2 °F 31.1 °F 94% 29.87 in 10.0 mi SSE 6.9 mph - N/A   Clear
6:15 AM 33.3 °F 27.1 °F 31.3 °F 92% 29.87 in 10.0 mi SSE 6.9 mph - N/A   Clear
6:35 AM 34.0 °F 29.8 °F 31.8 °F 92% 29.86 in 10.0 mi SSE 4.6 mph - N/A   Clear
6:55 AM 33.3 °F 27.9 °F 31.1 °F 92% 29.85 in 10.0 mi SSE 5.8 mph - N/A   Clear
7:15 AM 33.1 °F 27.7 °F 30.9 °F 92% 29.85 in 10.0 mi SE 5.8 mph - N/A   Clear
7:35 AM 33.8 °F 27.7 °F 31.6 °F 92% 29.84 in 10.0 mi SSE 6.9 mph - N/A   Clear
7:55 AM 34.0 °F 27.2 °F 31.8 °F 92% 29.83 in 10.0 mi SSE 8.1 mph - N/A   Clear
8:15 AM 36.0 °F 30.3 °F 32.2 °F 86% 29.82 in 10.0 mi SSE 6.9 mph - N/A   Clear
8:35 AM 36.7 °F 32.0 °F 32.9 °F 86% 29.81 in 10.0 mi SSE 5.8 mph - N/A   Clear
8:55 AM 37.4 °F 32.1 °F 33.3 °F 85% 29.80 in 10.0 mi SE 6.9 mph - N/A   Clear
9:15 AM 40.1 °F 34.1 °F 35.6 °F 84% 29.79 in 10.0 mi South 9.2 mph - N/A   Clear
9:35 AM 42.3 °F 40.5 °F 36.5 °F 80% 29.79 in 10.0 mi SSE 3.5 mph - N/A   Clear
10:55 AM 51.4 °F - 40.6 °F 67% 29.78 in 10.0 mi WNW 4.6 mph - N/A   Clear
11:15 AM 52.9 °F - 39.9 °F 61% 29.78 in 10.0 mi WNW 6.9 mph - N/A   Clear
11:35 AM 54.5 °F - 41.2 °F 61% 29.77 in 10.0 mi NW 5.8 mph - N/A   Clear
11:55 AM 54.0 °F - 41.4 °F 62% 29.78 in 10.0 mi NW 5.8 mph - N/A   Clear
12:15 PM 54.0 °F - 41.5 °F 63% 29.77 in 10.0 mi NNW 6.9 mph - N/A   Clear
12:35 PM 54.7 °F - 42.8 °F 64% 29.77 in 10.0 mi NNW 6.9 mph - N/A   Clear
12:55 PM 53.8 °F - 44.2 °F 70% 29.77 in 10.0 mi North 3.5 mph - N/A   Clear
1:15 PM 54.5 °F - 44.8 °F 70% 29.77 in 10.0 mi North 5.8 mph - N/A   Clear
1:35 PM 53.6 °F - 45.5 °F 74% 29.77 in 10.0 mi North 3.5 mph - N/A   Clear
1:55 PM 53.1 °F - 45.9 °F 77% 29.77 in 10.0 mi NNW 5.8 mph - N/A   Clear
2:15 PM 53.6 °F - 45.9 °F 75% 29.76 in 10.0 mi North 4.6 mph - N/A   Clear
2:35 PM 56.3 °F - 46.4 °F 69% 29.74 in 10.0 mi North 5.8 mph - N/A   Clear
2:55 PM 55.2 °F - 46.4 °F 72% 29.73 in 10.0 mi North 8.1 mph - N/A   Clear
3:15 PM 53.6 °F - 44.1 °F 70% 29.73 in 10.0 mi North 8.1 mph - N/A   Clear
3:35 PM 54.1 °F - 44.1 °F 69% 29.73 in 10.0 mi North 5.8 mph - N/A   Clear
3:55 PM 55.0 °F - 45.7 °F 71% 29.73 in 10.0 mi North 5.8 mph - N/A   Clear
4:15 PM 56.3 °F - 45.7 °F 68% 29.74 in 10.0 mi North 6.9 mph - N/A   Clear
4:35 PM 54.7 °F - 45.1 °F 70% 29.74 in 10.0 mi North 6.9 mph - N/A   Clear
4:55 PM 55.0 °F - 45.5 °F 70% 29.73 in 10.0 mi North 6.9 mph - N/A   Clear
5:15 PM 54.7 °F - 45.5 °F 71% 29.73 in 10.0 mi North 6.9 mph - N/A   Clear
5:35 PM 54.9 °F - 45.9 °F 72% 29.73 in 10.0 mi North 8.1 mph - N/A   Clear
5:55 PM 52.7 °F - 45.3 °F 76% 29.73 in 10.0 mi North 6.9 mph - N/A   Clear
6:15 PM 51.4 °F - 44.8 °F 78% 29.73 in 10.0 mi North 5.8 mph - N/A   Clear
6:35 PM 50.0 °F - 43.7 °F 79% 29.73 in 10.0 mi North 8.1 mph - N/A   Clear
6:55 PM 48.6 °F - 42.4 °F 79% 29.73 in 10.0 mi North 8.1 mph - N/A   Clear
7:15 PM 46.6 °F - 41.4 °F 82% 29.74 in 10.0 mi North 6.9 mph - N/A   Clear
7:35 PM 44.2 °F 40.3 °F 40.3 °F 86% 29.74 in 10.0 mi North 6.9 mph - N/A   Clear
7:55 PM 42.3 °F 36.3 °F 39.0 °F 88% 29.76 in 7.0 mi North 10.4 mph - N/A   Clear
8:15 PM 42.1 °F 36.1 °F 38.3 °F 86% 29.77 in 10.0 mi North 10.4 mph - N/A   Clear
8:35 PM 41.7 °F 35.6 °F 37.9 °F 86% 29.78 in 7.0 mi North 10.4 mph - N/A   Clear
8:55 PM 40.3 °F 33.9 °F 37.2 °F 89% 29.79 in 7.0 mi North 10.4 mph - N/A   Clear
9:15 PM 39.4 °F 33.8 °F 36.7 °F 90% 29.79 in 5.0 mi North 8.1 mph - N/A   Clear
9:35 PM 39.6 °F 33.5 °F 37.2 °F 91% 29.80 in 5.0 mi North 9.2 mph - N/A   Clear
9:55 PM 38.3 °F 31.9 °F 36.0 °F 91% 29.81 in 4.0 mi North 9.2 mph - N/A   Clear
10:15 PM 38.3 °F 30.9 °F 36.1 °F 92% 29.82 in 4.0 mi North 11.5 mph - N/A   Clear
10:35 PM 38.3 °F 30.9 °F 36.1 °F 92% 29.84 in 4.0 mi North 11.5 mph - N/A   Clear
10:55 PM 37.9 °F 30.5 °F 36.0 °F 93% 29.86 in 4.0 mi North 11.5 mph - N/A   Scattered Clouds
11:15 PM 38.3 °F 31.9 °F 36.5 °F 93% 29.85 in 4.0 mi North 9.2 mph - N/A   Overcast
11:35 PM 38.3 °F 33.9 °F 36.5 °F 93% 29.85 in 3.0 mi North 5.8 mph - N/A   Overcast
11:55 PM 38.7 °F 32.9 °F 36.9 °F 93% 29.86 in 3.0 mi North 8.1 mph - N/A   Overcast